Winner, SD

7:03 AM CST on November 18, 2017 (GMT -0600)
Winner

Weather History for KICR - January, 2014

Change the Weather History Date:

Tuesday, January 21, 2014

  Actual Average Record
Temperature  
Mean Temperature 24 °F 25 °F  
Max Temperature 47 °F 36 °F 57 °F (2009)
Min Temperature 1 °F 14 °F 1 °F (2014)
Degree Days  
Heating Degree Days 41 40  
Month to date heating degree days 804 845  
Since 1 July heating degree days 3645 3551  
Cooling Degree Days 0 0  
Month to date cooling degree days 0 0  
Year to date cooling degree days 0 0  
Moisture  
Dew Point 12 °F    
Average Humidity 56    
Maximum Humidity 79    
Minimum Humidity 33    
Precipitation  
Precipitation 0.00 in 0.01 in 0.01 in (2016)
Month to date precipitation 0.02 0.15  
Year to date precipitation 0.02 0.15  
Sea Level Pressure  
Sea Level Pressure 30.21 in    
Wind  
Wind Speed 15 mph (West)    
Max Wind Speed 41 mph    
Max Gust Speed 51 mph    
Visibility 10 miles    
Events      
T = Trace of Precipitation, MM = Missing Value Source: NWS Daily Summary

Daily Weather History Graph

Daily Weather History Graph

Search for Another Location

Airport or City:

Trip Planner

Search our weather history database for the weather conditions in past years. The results will help you decide how hot, cold, wet, or windy it might be!

Date:

Astronomy

Jan. 21, 2014 Rise Set
Actual Time 8:05 AM CST 5:36 PM CST
Civil Twilight 7:34 AM CST 6:07 PM CST
Nautical Twilight 6:59 AM CST 6:42 PM CST
Astronomical Twilight 6:25 AM CST 7:16 PM CST
Moon 11:22 PM CST (1/21) 10:25 AM CST (1/21)
Length of Visible Light 10h 33m
Length of Day
9h 31m
Waning Gibbous, 74% of the Moon is Illuminated
Jan 21
Waning Gibbous
Jan 23
Last Quarter
Jan 30
New
Feb 6
First Quarter
Feb 14
Full

Hourly Weather History & Observations

Time (CST) Temp. Windchill Dew Point Humidity Pressure Visibility Wind Dir Wind Speed Gust Speed Precip Events Conditions
12:53 AM 1.9 °F - -5.1 °F 72% 30.56 in 10.0 mi Calm Calm - N/A   Clear
1:53 AM 1.0 °F - -6.0 °F 72% 30.55 in 10.0 mi Calm Calm - N/A   Clear
2:53 AM 1.9 °F -5.6 °F -6.0 °F 69% 30.52 in 10.0 mi South 3.5 mph - N/A   Clear
3:53 AM 3.0 °F -9.3 °F -4.0 °F 73% 30.50 in 10.0 mi South 6.9 mph - N/A   Clear
4:53 AM 3.9 °F -8.2 °F -2.9 °F 73% 30.46 in 10.0 mi South 6.9 mph - N/A   Clear
5:53 AM 5.0 °F -10.0 °F -2.0 °F 73% 30.41 in 10.0 mi South 10.4 mph - N/A   Clear
6:53 AM 7.0 °F -9.1 °F -0.9 °F 70% 30.36 in 10.0 mi South 12.7 mph - N/A   Clear
7:53 AM 9.0 °F -4.2 °F 1.9 °F 73% 30.32 in 10.0 mi South 9.2 mph - N/A   Clear
8:53 AM 12.0 °F -1.3 °F 5.0 °F 73% 30.26 in 10.0 mi South 10.4 mph - N/A   Clear
9:53 AM 17.1 °F 3.0 °F 9.0 °F 71% 30.20 in 10.0 mi South 13.8 mph - N/A   Partly Cloudy
10:53 AM 21.0 °F 6.6 °F 10.9 °F 65% 30.12 in 10.0 mi SSW 17.3 mph 27.6 mph N/A   Mostly Cloudy
11:53 AM 28.9 °F 16.5 °F 15.1 °F 56% 30.05 in 10.0 mi SW 18.4 mph 27.6 mph N/A   Clear
12:49 PM 46.4 °F 37.2 °F 17.6 °F 32% 29.90 in 10.0 mi WNW 29.9 mph 35.7 mph N/A   Mostly Cloudy
12:53 PM 45.0 °F 35.6 °F 18.0 °F 34% 29.97 in 10.0 mi WNW 27.6 mph 36.8 mph N/A   Mostly Cloudy
1:53 PM 41.0 °F 29.8 °F 19.9 °F 43% 30.01 in 10.0 mi NW 29.9 mph 39.1 mph N/A   Overcast
2:53 PM 42.1 °F 31.9 °F 23.0 °F 47% 30.02 in 10.0 mi NW 26.5 mph 43.7 mph N/A   Mostly Cloudy
3:53 PM 42.1 °F 31.7 °F 23.0 °F 47% 30.05 in 10.0 mi NNW 27.6 mph 34.5 mph N/A   Clear
4:53 PM 37.9 °F 28.5 °F 24.1 °F 57% 30.09 in 10.0 mi NNW 17.3 mph 27.6 mph N/A   Clear
5:53 PM 36.0 °F 27.1 °F 24.1 °F 62% 30.11 in 10.0 mi NW 13.8 mph - N/A   Overcast
6:53 PM 33.1 °F 23.0 °F 23.0 °F 66% 30.14 in 10.0 mi NNW 15.0 mph - N/A   Scattered Clouds
7:53 PM 33.1 °F 23.0 °F 23.0 °F 66% 30.16 in 10.0 mi NNW 15.0 mph - N/A   Overcast
8:53 PM 32.0 °F 20.1 °F 21.9 °F 66% 30.16 in 10.0 mi NNW 19.6 mph 26.5 mph N/A   Overcast
9:53 PM 30.9 °F 19.1 °F 21.9 °F 69% 30.16 in 10.0 mi NW 18.4 mph 24.2 mph N/A   Scattered Clouds
10:53 PM 30.0 °F 18.7 °F 21.0 °F 69% 30.17 in 10.0 mi NW 16.1 mph 24.2 mph N/A   Mostly Cloudy
11:30 PM 28.4 °F 17.0 °F 19.4 °F 69% 30.10 in 10.0 mi NNW 15.0 mph - N/A   Scattered Clouds
11:53 PM 28.0 °F 15.3 °F 19.0 °F 69% 30.18 in 10.0 mi NNW 18.4 mph 27.6 mph N/A   Clear